Regional Weather Roundup
Issued by NWS

Home | Current Version | Previous Version | Text Only | Print | Product List | Glossary Off
Versions: 1 2 3 4 5 6 7 8 9 10 11 12 13 14 15 16 17 18 19 20 21 22 23 24 25 26 27 28 29 30 31 32 33 34 35 36 37 38 39 40 41 42 43 44 45 46 47 48 49 50

000
ASUS43 KLMK 211710
RWRKY
KENTUCKY REGIONAL WEATHER ROUNDUP
NATIONAL WEATHER SERVICE LOUISVILLE KY
1200 PM EST WED FEB 21 2018

NOTE "FAIR" INDICATES FEW OR NO CLOUDS BELOW 12,000 FEET
WITH NO SIGNIFICANT WEATHER AND/OR OBSTRUCTIONS TO VISIBILITY.

KYZ001>023-026-027-061>063-070>075-211800-
WESTERN AND SOUTH CENTRAL KENTUCKY

CITY           SKY/WX    TMP DP  RH WIND       PRES   REMARKS
PADUCAH        LGT RAIN  40  37  89 NE12      30.43F WCI  33
HENDERSON      LGT RAIN  39  37  92 N5        30.47R
OWENSBORO      LGT RAIN  41  38  89 N10       30.45R
HOPKINSVILLE   LGT RAIN  45  44  98 N10       30.40S
BOWLING GREEN  CLOUDY    53  52  96 NW6       30.39R
GLASGOW        RAIN      58  58 100 N6        30.38R
$$

KYZ024-025-028>034-038-045-046-053-211800-
NORTH CENTRAL KENTUCKY

CITY           SKY/WX    TMP DP  RH WIND       PRES   REMARKS
LOUISVILLE/SDF LGT RAIN  52  50  93 N12       30.40R
LOUISVILLE/LOU LGT RAIN  51  50  96 N12G20    30.41S
FORT KNOX      LGT RAIN  50  50 100 NW8       30.40S FOG
$$

KYZ035>037-039>044-047>052-055>060-089>105-211800-
NORTHEAST KENTUCKY

CITY           SKY/WX    TMP DP  RH WIND       PRES   REMARKS
LEXINGTON      LGT RAIN  60  55  83 N10       30.38R
COVINGTON      LGT RAIN  49  49 100 NW12      30.40R
FRANKFORT      CLOUDY    59  55  87 NW5       30.38R
$$

KYZ054-064>069-076>088-106>120-211800-
SOUTHEAST KENTUCKY

CITY           SKY/WX    TMP DP  RH WIND       PRES   REMARKS
JACKSON        PTSUNNY   77  58  51 MISG      30.32R
LONDON         PTSUNNY   74  59  59 SW14G26   30.32F
SOMERSET       CLOUDY    63  54  72 MISG      30.35R
MIDDLESBORO    CLOUDY    71  63  74 S6        30.37F
MONTICELLO     NOT AVBL
$$




USA.gov is the U.S. government's official web portal to all federal, state and local government web resources and services.